Time,TemperatureF,DewpointF,PressureIn,WindDirection,WindDirectionDegrees,WindSpeedMPH,WindSpeedGustMPH,Humidity,HourlyPrecipIn,Conditions,Clouds,dailyrainin,SoftwareType,DateUTC
2013-04-20 00:00:00,43.0,37.9,30.05,NE,45,1.0,-999.0,82,0.00,,,0.00,Wunderground v.1.15,2013-04-20 04:00:00,
2013-04-20 00:05:00,43.0,37.9,30.05,NE,45,1.0,-999.0,82,0.00,,,0.00,Wunderground v.1.15,2013-04-20 04:05:00,
2013-04-20 00:10:00,43.0,37.9,30.05,NE,45,1.0,-999.0,82,0.00,,,0.00,Wunderground v.1.15,2013-04-20 04:10:00,
2013-04-20 00:15:00,43.0,37.9,30.05,NE,45,1.0,-999.0,82,0.00,,,0.00,Wunderground v.1.15,2013-04-20 04:15:00,
2013-04-20 00:20:00,43.0,37.9,30.05,NE,45,1.0,-999.0,82,0.00,,,0.00,Wunderground v.1.15,2013-04-20 04:20:00,
2013-04-20 00:25:00,43.0,37.9,30.05,NE,45,1.0,-999.0,82,0.00,,,0.00,Wunderground v.1.15,2013-04-20 04:25:00,
2013-04-20 00:30:00,43.0,37.9,30.05,NE,45,1.0,-999.0,82,0.00,,,0.00,Wunderground v.1.15,2013-04-20 04:30:00,
2013-04-20 00:35:00,43.0,37.9,30.05,NE,45,1.0,-999.0,82,0.00,,,0.00,Wunderground v.1.15,2013-04-20 04:35:00,
2013-04-20 00:40:00,43.0,37.9,30.05,NE,45,1.0,-999.0,82,0.00,,,0.00,Wunderground v.1.15,2013-04-20 04:40:00,
2013-04-20 00:45:00,42.6,36.2,30.04,SW,225,1.0,-999.0,78,0.00,,,0.00,Wunderground v.1.15,2013-04-20 04:45:00,
2013-04-20 00:50:00,42.6,36.2,30.04,SW,225,1.0,-999.0,78,0.00,,,0.00,Wunderground v.1.15,2013-04-20 04:50:00,
2013-04-20 00:55:00,42.6,36.2,30.04,SW,225,1.0,-999.0,78,0.00,,,0.00,Wunderground v.1.15,2013-04-20 04:55:00,
2013-04-20 01:00:00,42.6,36.2,30.04,SW,225,1.0,-999.0,78,0.00,,,0.00,Wunderground v.1.15,2013-04-20 05:00:00,
2013-04-20 01:05:00,42.6,36.2,30.04,SW,225,1.0,-999.0,78,0.00,,,0.00,Wunderground v.1.15,2013-04-20 05:05:00,
2013-04-20 01:10:00,42.6,36.2,30.04,SW,225,1.0,-999.0,78,0.00,,,0.00,Wunderground v.1.15,2013-04-20 05:10:00,
2013-04-20 01:15:00,42.1,35.7,30.05,SW,225,1.0,-999.0,78,0.00,,,0.00,Wunderground v.1.15,2013-04-20 05:15:00,
2013-04-20 01:20:00,42.1,35.7,30.05,SW,225,1.0,-999.0,78,0.00,,,0.00,Wunderground v.1.15,2013-04-20 05:20:00,
2013-04-20 01:25:00,42.1,35.7,30.05,SW,225,1.0,-999.0,78,0.00,,,0.00,Wunderground v.1.15,2013-04-20 05:25:00,
2013-04-20 01:30:00,42.1,35.7,30.05,SW,225,1.0,-999.0,78,0.00,,,0.00,Wunderground v.1.15,2013-04-20 05:30:00,
2013-04-20 01:35:00,42.1,35.7,30.05,SW,225,1.0,-999.0,78,0.00,,,0.00,Wunderground v.1.15,2013-04-20 05:35:00,
2013-04-20 01:40:00,42.1,35.7,30.05,SW,225,1.0,-999.0,78,0.00,,,0.00,Wunderground v.1.15,2013-04-20 05:40:00,
2013-04-20 01:45:00,41.6,35.9,30.05,West,270,1.0,-999.0,80,0.00,,,0.00,Wunderground v.1.15,2013-04-20 05:45:00,
2013-04-20 01:50:00,41.6,35.9,30.05,West,270,1.0,-999.0,80,0.00,,,0.00,Wunderground v.1.15,2013-04-20 05:50:00,
2013-04-20 01:55:00,41.6,35.9,30.05,West,270,1.0,-999.0,80,0.00,,,0.00,Wunderground v.1.15,2013-04-20 05:55:00,
2013-04-20 02:00:00,41.6,35.9,30.05,West,270,1.0,-999.0,80,0.00,,,0.00,Wunderground v.1.15,2013-04-20 06:00:00,
2013-04-20 02:05:00,41.6,35.9,30.05,West,270,1.0,-999.0,80,0.00,,,0.00,Wunderground v.1.15,2013-04-20 06:05:00,
2013-04-20 02:10:00,41.6,35.9,30.05,West,270,1.0,-999.0,80,0.00,,,0.00,Wunderground v.1.15,2013-04-20 06:10:00,
2013-04-20 02:15:00,40.9,36.4,30.06,NE,45,1.0,-999.0,84,0.00,,,0.00,Wunderground v.1.15,2013-04-20 06:15:00,
2013-04-20 02:20:00,40.9,36.4,30.06,NE,45,1.0,-999.0,84,0.00,,,0.00,Wunderground v.1.15,2013-04-20 06:20:00,
2013-04-20 02:25:00,40.9,36.4,30.06,NE,45,1.0,-999.0,84,0.00,,,0.00,Wunderground v.1.15,2013-04-20 06:25:00,
2013-04-20 02:30:00,40.9,36.4,30.06,NE,45,1.0,-999.0,84,0.00,,,0.00,Wunderground v.1.15,2013-04-20 06:30:00,
2013-04-20 02:35:00,40.9,36.4,30.06,NE,45,1.0,-999.0,84,0.00,,,0.00,Wunderground v.1.15,2013-04-20 06:35:00,
2013-04-20 02:40:00,40.9,36.4,30.06,NE,45,1.0,-999.0,84,0.00,,,0.00,Wunderground v.1.15,2013-04-20 06:40:00,
2013-04-20 02:45:00,40.4,35.6,30.07,North,0,1.0,-999.0,83,0.00,,,0.00,Wunderground v.1.15,2013-04-20 06:45:00,
2013-04-20 02:50:00,40.4,35.6,30.07,North,0,1.0,-999.0,83,0.00,,,0.00,Wunderground v.1.15,2013-04-20 06:50:00,
2013-04-20 02:55:00,40.4,35.6,30.07,North,0,1.0,-999.0,83,0.00,,,0.00,Wunderground v.1.15,2013-04-20 06:55:00,
2013-04-20 03:00:00,40.4,35.6,30.07,North,0,1.0,-999.0,83,0.00,,,0.00,Wunderground v.1.15,2013-04-20 07:00:00,
2013-04-20 03:05:00,40.4,35.6,30.07,North,0,1.0,-999.0,83,0.00,,,0.00,Wunderground v.1.15,2013-04-20 07:05:00,
2013-04-20 03:10:00,40.4,35.6,30.07,North,0,1.0,-999.0,83,0.00,,,0.00,Wunderground v.1.15,2013-04-20 07:10:00,
2013-04-20 03:15:00,40.0,34.3,30.08,North,0,1.0,-999.0,80,0.00,,,0.00,Wunderground v.1.15,2013-04-20 07:15:00,
2013-04-20 03:20:00,40.0,34.3,30.08,North,0,1.0,-999.0,80,0.00,,,0.00,Wunderground v.1.15,2013-04-20 07:20:00,
2013-04-20 03:25:00,40.0,34.3,30.08,North,0,1.0,-999.0,80,0.00,,,0.00,Wunderground v.1.15,2013-04-20 07:25:00,
2013-04-20 03:30:00,40.0,34.3,30.08,North,0,1.0,-999.0,80,0.00,,,0.00,Wunderground v.1.15,2013-04-20 07:30:00,
2013-04-20 03:35:00,40.0,34.3,30.08,North,0,1.0,-999.0,80,0.00,,,0.00,Wunderground v.1.15,2013-04-20 07:35:00,
2013-04-20 03:40:00,40.0,34.3,30.08,North,0,1.0,-999.0,80,0.00,,,0.00,Wunderground v.1.15,2013-04-20 07:40:00,
2013-04-20 03:45:00,39.5,34.5,30.10,NNE,23,1.0,-999.0,82,0.00,,,0.00,Wunderground v.1.15,2013-04-20 07:45:00,
2013-04-20 03:50:00,39.5,34.5,30.10,NNE,23,1.0,-999.0,82,0.00,,,0.00,Wunderground v.1.15,2013-04-20 07:50:00,
2013-04-20 03:55:00,39.5,34.5,30.10,NNE,23,1.0,-999.0,82,0.00,,,0.00,Wunderground v.1.15,2013-04-20 07:55:00,
2013-04-20 04:00:00,39.5,34.5,30.10,NNE,23,1.0,-999.0,82,0.00,,,0.00,Wunderground v.1.15,2013-04-20 08:00:00,
2013-04-20 04:05:00,39.5,34.5,30.10,NNE,23,1.0,-999.0,82,0.00,,,0.00,Wunderground v.1.15,2013-04-20 08:05:00,
2013-04-20 04:10:00,39.5,34.5,30.10,NNE,23,1.0,-999.0,82,0.00,,,0.00,Wunderground v.1.15,2013-04-20 08:10:00,
2013-04-20 04:15:00,39.0,34.3,30.10,West,270,1.0,-999.0,83,0.00,,,0.00,Wunderground v.1.15,2013-04-20 08:15:00,
2013-04-20 04:20:00,39.0,34.3,30.10,West,270,1.0,-999.0,83,0.00,,,0.00,Wunderground v.1.15,2013-04-20 08:20:00,
2013-04-20 04:25:00,39.0,34.3,30.10,West,270,1.0,-999.0,83,0.00,,,0.00,Wunderground v.1.15,2013-04-20 08:25:00,
2013-04-20 04:30:00,39.0,34.3,30.10,West,270,1.0,-999.0,83,0.00,,,0.00,Wunderground v.1.15,2013-04-20 08:30:00,
2013-04-20 04:35:00,39.0,34.3,30.10,West,270,1.0,-999.0,83,0.00,,,0.00,Wunderground v.1.15,2013-04-20 08:35:00,
2013-04-20 04:40:00,39.0,34.3,30.10,West,270,1.0,-999.0,83,0.00,,,0.00,Wunderground v.1.15,2013-04-20 08:40:00,
2013-04-20 04:45:00,38.5,33.8,30.11,WSW,248,1.0,-999.0,83,0.00,,,0.00,Wunderground v.1.15,2013-04-20 08:45:00,
2013-04-20 04:50:00,38.5,33.8,30.11,WSW,248,1.0,-999.0,83,0.00,,,0.00,Wunderground v.1.15,2013-04-20 08:50:00,
2013-04-20 04:55:00,38.5,33.8,30.11,WSW,248,1.0,-999.0,83,0.00,,,0.00,Wunderground v.1.15,2013-04-20 08:55:00,
2013-04-20 05:00:00,38.5,33.8,30.11,WSW,248,1.0,-999.0,83,0.00,,,0.00,Wunderground v.1.15,2013-04-20 09:00:00,
2013-04-20 05:05:00,38.5,33.8,30.11,WSW,248,1.0,-999.0,83,0.00,,,0.00,Wunderground v.1.15,2013-04-20 09:05:00,
2013-04-20 05:10:00,38.5,33.8,30.11,WSW,248,1.0,-999.0,83,0.00,,,0.00,Wunderground v.1.15,2013-04-20 09:10:00,
2013-04-20 05:15:00,38.0,32.4,30.13,SW,225,1.0,-999.0,80,0.00,,,0.00,Wunderground v.1.15,2013-04-20 09:15:00,
2013-04-20 05:20:00,38.0,32.4,30.13,SW,225,1.0,-999.0,80,0.00,,,0.00,Wunderground v.1.15,2013-04-20 09:20:00,
2013-04-20 05:25:00,38.0,32.4,30.13,SW,225,1.0,-999.0,80,0.00,,,0.00,Wunderground v.1.15,2013-04-20 09:25:00,
2013-04-20 05:30:00,38.0,32.4,30.13,SW,225,1.0,-999.0,80,0.00,,,0.00,Wunderground v.1.15,2013-04-20 09:30:00,
2013-04-20 05:35:00,38.0,32.4,30.13,SW,225,1.0,-999.0,80,0.00,,,0.00,Wunderground v.1.15,2013-04-20 09:35:00,
2013-04-20 05:40:00,38.0,32.4,30.13,SW,225,1.0,-999.0,80,0.00,,,0.00,Wunderground v.1.15,2013-04-20 09:40:00,
2013-04-20 05:45:00,37.4,31.2,30.14,North,0,1.0,-999.0,78,0.00,,,0.00,Wunderground v.1.15,2013-04-20 09:45:00,
2013-04-20 05:50:00,37.4,31.2,30.14,North,0,1.0,-999.0,78,0.00,,,0.00,Wunderground v.1.15,2013-04-20 09:50:00,
2013-04-20 05:55:00,37.4,31.2,30.14,North,0,1.0,-999.0,78,0.00,,,0.00,Wunderground v.1.15,2013-04-20 09:55:00,
2013-04-20 06:00:00,37.4,31.2,30.14,North,0,1.0,-999.0,78,0.00,,,0.00,Wunderground v.1.15,2013-04-20 10:00:00,
2013-04-20 06:05:00,37.4,31.2,30.14,North,0,1.0,-999.0,78,0.00,,,0.00,Wunderground v.1.15,2013-04-20 10:05:00,
2013-04-20 06:10:00,37.4,31.2,30.14,North,0,1.0,-999.0,78,0.00,,,0.00,Wunderground v.1.15,2013-04-20 10:10:00,
2013-04-20 06:15:00,36.7,30.8,30.16,NE,45,2.0,-999.0,79,0.00,,,0.00,Wunderground v.1.15,2013-04-20 10:15:00,
2013-04-20 06:20:00,36.7,30.8,30.16,NE,45,2.0,-999.0,79,0.00,,,0.00,Wunderground v.1.15,2013-04-20 10:20:00,
2013-04-20 06:25:00,36.7,30.8,30.16,NE,45,2.0,-999.0,79,0.00,,,0.00,Wunderground v.1.15,2013-04-20 10:25:00,
2013-04-20 06:30:00,36.7,30.8,30.16,NE,45,2.0,-999.0,79,0.00,,,0.00,Wunderground v.1.15,2013-04-20 10:30:00,
2013-04-20 06:35:00,36.7,30.8,30.16,NE,45,2.0,-999.0,79,0.00,,,0.00,Wunderground v.1.15,2013-04-20 10:35:00,
2013-04-20 06:40:00,36.7,30.8,30.16,NE,45,2.0,-999.0,79,0.00,,,0.00,Wunderground v.1.15,2013-04-20 10:40:00,
2013-04-20 06:45:00,36.1,30.8,30.18,NE,45,1.0,-999.0,81,0.00,,,0.00,Wunderground v.1.15,2013-04-20 10:45:00,
2013-04-20 06:50:00,36.1,30.8,30.18,NE,45,1.0,-999.0,81,0.00,,,0.00,Wunderground v.1.15,2013-04-20 10:50:00,
2013-04-20 06:55:00,36.1,30.8,30.18,NE,45,1.0,-999.0,81,0.00,,,0.00,Wunderground v.1.15,2013-04-20 10:55:00,
2013-04-20 07:00:00,36.1,30.8,30.18,NE,45,1.0,-999.0,81,0.00,,,0.00,Wunderground v.1.15,2013-04-20 11:00:00,
2013-04-20 07:05:00,36.1,30.8,30.18,NE,45,1.0,-999.0,81,0.00,,,0.00,Wunderground v.1.15,2013-04-20 11:05:00,
2013-04-20 07:10:00,36.1,30.8,30.18,NE,45,1.0,-999.0,81,0.00,,,0.00,Wunderground v.1.15,2013-04-20 11:10:00,
2013-04-20 07:15:00,35.9,30.6,30.21,NE,45,1.0,-999.0,81,0.00,,,0.00,Wunderground v.1.15,2013-04-20 11:15:00,
2013-04-20 07:20:00,35.9,30.6,30.21,NE,45,1.0,-999.0,81,0.00,,,0.00,Wunderground v.1.15,2013-04-20 11:20:00,
2013-04-20 07:25:00,35.9,30.6,30.21,NE,45,1.0,-999.0,81,0.00,,,0.00,Wunderground v.1.15,2013-04-20 11:25:00,
2013-04-20 07:30:00,35.9,30.6,30.21,NE,45,1.0,-999.0,81,0.00,,,0.00,Wunderground v.1.15,2013-04-20 11:30:00,
2013-04-20 07:35:00,35.9,30.6,30.21,NE,45,1.0,-999.0,81,0.00,,,0.00,Wunderground v.1.15,2013-04-20 11:35:00,
2013-04-20 07:40:00,35.9,30.6,30.21,NE,45,1.0,-999.0,81,0.00,,,0.00,Wunderground v.1.15,2013-04-20 11:40:00,
2013-04-20 07:45:00,36.4,30.8,30.22,NE,45,1.0,-999.0,80,0.00,,,0.00,Wunderground v.1.15,2013-04-20 11:45:00,
2013-04-20 07:50:00,36.4,30.8,30.22,NE,45,1.0,-999.0,80,0.00,,,0.00,Wunderground v.1.15,2013-04-20 11:50:00,
2013-04-20 07:55:00,36.4,30.8,30.22,NE,45,1.0,-999.0,80,0.00,,,0.00,Wunderground v.1.15,2013-04-20 11:55:00,
2013-04-20 08:00:00,36.4,30.8,30.22,NE,45,1.0,-999.0,80,0.00,,,0.00,Wunderground v.1.15,2013-04-20 12:00:00,
2013-04-20 08:05:00,36.4,30.8,30.22,NE,45,1.0,-999.0,80,0.00,,,0.00,Wunderground v.1.15,2013-04-20 12:05:00,
2013-04-20 08:10:00,36.4,30.8,30.22,NE,45,1.0,-999.0,80,0.00,,,0.00,Wunderground v.1.15,2013-04-20 12:10:00,
2013-04-20 08:15:00,37.4,30.8,30.23,North,0,1.0,-999.0,77,0.00,,,0.00,Wunderground v.1.15,2013-04-20 12:15:00,
2013-04-20 08:20:00,37.4,30.8,30.23,North,0,1.0,-999.0,77,0.00,,,0.00,Wunderground v.1.15,2013-04-20 12:20:00,
2013-04-20 08:25:00,37.4,30.8,30.23,North,0,1.0,-999.0,77,0.00,,,0.00,Wunderground v.1.15,2013-04-20 12:25:00,
2013-04-20 08:30:00,37.4,30.8,30.23,North,0,1.0,-999.0,77,0.00,,,0.00,Wunderground v.1.15,2013-04-20 12:30:00,
2013-04-20 08:35:00,37.4,30.8,30.23,North,0,1.0,-999.0,77,0.00,,,0.00,Wunderground v.1.15,2013-04-20 12:35:00,
2013-04-20 08:40:00,37.4,30.8,30.23,North,0,1.0,-999.0,77,0.00,,,0.00,Wunderground v.1.15,2013-04-20 12:40:00,
2013-04-20 08:45:00,39.0,30.7,30.24,NNE,23,2.0,-999.0,72,0.00,,,0.00,Wunderground v.1.15,2013-04-20 12:45:00,
2013-04-20 08:50:00,39.0,30.7,30.24,NNE,23,2.0,-999.0,72,0.00,,,0.00,Wunderground v.1.15,2013-04-20 12:50:00,
2013-04-20 08:55:00,39.0,30.7,30.24,NNE,23,2.0,-999.0,72,0.00,,,0.00,Wunderground v.1.15,2013-04-20 12:55:00,
2013-04-20 09:00:00,39.0,30.7,30.24,NNE,23,2.0,-999.0,72,0.00,,,0.00,Wunderground v.1.15,2013-04-20 13:00:00,
2013-04-20 09:05:00,39.0,30.7,30.24,NNE,23,2.0,-999.0,72,0.00,,,0.00,Wunderground v.1.15,2013-04-20 13:05:00,
2013-04-20 09:10:00,39.0,30.7,30.24,NNE,23,2.0,-999.0,72,0.00,,,0.00,Wunderground v.1.15,2013-04-20 13:10:00,
2013-04-20 09:15:00,40.4,31.0,30.26,NNE,23,2.0,-999.0,69,0.00,,,0.00,Wunderground v.1.15,2013-04-20 13:15:00,
2013-04-20 09:20:00,40.4,31.0,30.26,NNE,23,2.0,-999.0,69,0.00,,,0.00,Wunderground v.1.15,2013-04-20 13:20:00,
2013-04-20 09:25:00,40.4,31.0,30.26,NNE,23,2.0,-999.0,69,0.00,,,0.00,Wunderground v.1.15,2013-04-20 13:25:00,
2013-04-20 09:30:00,40.4,31.0,30.26,NNE,23,2.0,-999.0,69,0.00,,,0.00,Wunderground v.1.15,2013-04-20 13:30:00,
2013-04-20 09:35:00,40.4,31.0,30.26,NNE,23,2.0,-999.0,69,0.00,,,0.00,Wunderground v.1.15,2013-04-20 13:35:00,
2013-04-20 09:40:00,40.4,31.0,30.26,NNE,23,2.0,-999.0,69,0.00,,,0.00,Wunderground v.1.15,2013-04-20 13:40:00,
2013-04-20 09:45:00,41.6,31.8,30.27,WSW,248,2.0,-999.0,68,0.00,,,0.00,Wunderground v.1.15,2013-04-20 13:45:00,
2013-04-20 09:50:00,41.6,31.8,30.27,WSW,248,2.0,-999.0,68,0.00,,,0.00,Wunderground v.1.15,2013-04-20 13:50:00,
2013-04-20 09:55:00,41.6,31.8,30.27,WSW,248,2.0,-999.0,68,0.00,,,0.00,Wunderground v.1.15,2013-04-20 13:55:00,
2013-04-20 10:00:00,41.6,31.8,30.27,WSW,248,2.0,-999.0,68,0.00,,,0.00,Wunderground v.1.15,2013-04-20 14:00:00,
2013-04-20 10:05:00,41.6,31.8,30.27,WSW,248,2.0,-999.0,68,0.00,,,0.00,Wunderground v.1.15,2013-04-20 14:05:00,
2013-04-20 10:10:00,41.6,31.8,30.27,WSW,248,2.0,-999.0,68,0.00,,,0.00,Wunderground v.1.15,2013-04-20 14:10:00,
2013-04-20 10:15:00,42.9,32.3,30.27,WSW,248,2.0,-999.0,66,0.00,,,0.00,Wunderground v.1.15,2013-04-20 14:15:00,
2013-04-20 10:20:00,42.9,32.3,30.27,WSW,248,2.0,-999.0,66,0.00,,,0.00,Wunderground v.1.15,2013-04-20 14:20:00,
2013-04-20 10:25:00,42.9,32.3,30.27,WSW,248,2.0,-999.0,66,0.00,,,0.00,Wunderground v.1.15,2013-04-20 14:25:00,
2013-04-20 10:30:00,42.9,32.3,30.27,WSW,248,2.0,-999.0,66,0.00,,,0.00,Wunderground v.1.15,2013-04-20 14:30:00,
2013-04-20 10:35:00,42.9,32.3,30.27,WSW,248,2.0,-999.0,66,0.00,,,0.00,Wunderground v.1.15,2013-04-20 14:35:00,
2013-04-20 10:40:00,42.9,32.3,30.27,WSW,248,2.0,-999.0,66,0.00,,,0.00,Wunderground v.1.15,2013-04-20 14:40:00,
2013-04-20 10:45:00,44.9,33.5,30.28,NNE,23,2.0,-999.0,64,0.00,,,0.00,Wunderground v.1.15,2013-04-20 14:45:00,
2013-04-20 10:50:00,44.9,33.5,30.28,NNE,23,2.0,-999.0,64,0.00,,,0.00,Wunderground v.1.15,2013-04-20 14:50:00,
2013-04-20 10:55:00,44.9,33.5,30.28,NNE,23,2.0,-999.0,64,0.00,,,0.00,Wunderground v.1.15,2013-04-20 14:55:00,
2013-04-20 11:00:00,44.9,33.5,30.28,NNE,23,2.0,-999.0,64,0.00,,,0.00,Wunderground v.1.15,2013-04-20 15:00:00,
2013-04-20 11:05:00,44.9,33.5,30.28,NNE,23,2.0,-999.0,64,0.00,,,0.00,Wunderground v.1.15,2013-04-20 15:05:00,
2013-04-20 11:10:00,44.9,33.5,30.28,NNE,23,2.0,-999.0,64,0.00,,,0.00,Wunderground v.1.15,2013-04-20 15:10:00,
2013-04-20 11:15:00,46.2,33.5,30.28,North,0,2.0,-999.0,61,0.00,,,0.00,Wunderground v.1.15,2013-04-20 15:15:00,
2013-04-20 11:20:00,46.2,33.5,30.28,North,0,2.0,-999.0,61,0.00,,,0.00,Wunderground v.1.15,2013-04-20 15:20:00,
2013-04-20 11:25:00,46.2,33.5,30.28,North,0,2.0,-999.0,61,0.00,,,0.00,Wunderground v.1.15,2013-04-20 15:25:00,
2013-04-20 11:30:00,46.2,33.5,30.28,North,0,2.0,-999.0,61,0.00,,,0.00,Wunderground v.1.15,2013-04-20 15:30:00,
2013-04-20 11:35:00,46.2,33.5,30.28,North,0,2.0,-999.0,61,0.00,,,0.00,Wunderground v.1.15,2013-04-20 15:35:00,
2013-04-20 11:40:00,46.2,33.5,30.28,North,0,2.0,-999.0,61,0.00,,,0.00,Wunderground v.1.15,2013-04-20 15:40:00,
2013-04-20 11:45:00,47.9,34.3,30.28,West,270,2.0,-999.0,59,0.00,,,0.00,Wunderground v.1.15,2013-04-20 15:45:00,
2013-04-20 11:50:00,47.9,34.3,30.28,West,270,2.0,-999.0,59,0.00,,,0.00,Wunderground v.1.15,2013-04-20 15:50:00,
2013-04-20 11:55:00,47.9,34.3,30.28,West,270,2.0,-999.0,59,0.00,,,0.00,Wunderground v.1.15,2013-04-20 15:55:00,
2013-04-20 12:00:00,47.9,34.3,30.28,West,270,2.0,-999.0,59,0.00,,,0.00,Wunderground v.1.15,2013-04-20 16:00:00,
2013-04-20 12:05:00,47.9,34.3,30.28,West,270,2.0,-999.0,59,0.00,,,0.00,Wunderground v.1.15,2013-04-20 16:05:00,
2013-04-20 12:10:00,47.9,34.3,30.28,West,270,2.0,-999.0,59,0.00,,,0.00,Wunderground v.1.15,2013-04-20 16:10:00,
2013-04-20 12:15:00,48.9,34.3,30.29,NNE,23,3.0,-999.0,57,0.00,,,0.00,Wunderground v.1.15,2013-04-20 16:15:00,
2013-04-20 12:20:00,48.9,34.3,30.29,NNE,23,3.0,-999.0,57,0.00,,,0.00,Wunderground v.1.15,2013-04-20 16:20:00,
2013-04-20 12:25:00,48.9,34.3,30.29,NNE,23,3.0,-999.0,57,0.00,,,0.00,Wunderground v.1.15,2013-04-20 16:25:00,
2013-04-20 12:30:00,48.9,34.3,30.29,NNE,23,3.0,-999.0,57,0.00,,,0.00,Wunderground v.1.15,2013-04-20 16:30:00,
2013-04-20 12:35:00,48.9,34.3,30.29,NNE,23,3.0,-999.0,57,0.00,,,0.00,Wunderground v.1.15,2013-04-20 16:35:00,
2013-04-20 12:40:00,48.9,34.3,30.29,NNE,23,3.0,-999.0,57,0.00,,,0.00,Wunderground v.1.15,2013-04-20 16:40:00,
2013-04-20 12:45:00,51.1,35.9,30.28,NNE,23,3.0,-999.0,56,0.00,,,0.00,Wunderground v.1.15,2013-04-20 16:45:00,
2013-04-20 12:50:00,51.1,35.9,30.28,NNE,23,3.0,-999.0,56,0.00,,,0.00,Wunderground v.1.15,2013-04-20 16:50:00,
2013-04-20 12:55:00,51.1,35.9,30.28,NNE,23,3.0,-999.0,56,0.00,,,0.00,Wunderground v.1.15,2013-04-20 16:55:00,
2013-04-20 13:00:00,51.1,35.9,30.28,NNE,23,3.0,-999.0,56,0.00,,,0.00,Wunderground v.1.15,2013-04-20 17:00:00,
2013-04-20 13:05:00,51.1,35.9,30.28,NNE,23,3.0,-999.0,56,0.00,,,0.00,Wunderground v.1.15,2013-04-20 17:05:00,
2013-04-20 13:10:00,51.1,35.9,30.28,NNE,23,3.0,-999.0,56,0.00,,,0.00,Wunderground v.1.15,2013-04-20 17:10:00,
2013-04-20 13:15:00,51.4,35.3,30.28,NNE,23,2.0,-999.0,54,0.00,,,0.00,Wunderground v.1.15,2013-04-20 17:15:00,
2013-04-20 13:20:00,51.4,35.3,30.28,NNE,23,2.0,-999.0,54,0.00,,,0.00,Wunderground v.1.15,2013-04-20 17:20:00,
2013-04-20 13:25:00,51.4,35.3,30.28,NNE,23,2.0,-999.0,54,0.00,,,0.00,Wunderground v.1.15,2013-04-20 17:25:00,
2013-04-20 13:30:00,51.4,35.3,30.28,NNE,23,2.0,-999.0,54,0.00,,,0.00,Wunderground v.1.15,2013-04-20 17:30:00,
2013-04-20 13:35:00,51.4,35.3,30.28,NNE,23,2.0,-999.0,54,0.00,,,0.00,Wunderground v.1.15,2013-04-20 17:35:00,
2013-04-20 13:40:00,51.4,35.3,30.28,NNE,23,2.0,-999.0,54,0.00,,,0.00,Wunderground v.1.15,2013-04-20 17:40:00,
2013-04-20 13:45:00,53.1,38.3,30.28,SW,225,2.0,-999.0,57,0.00,,,0.00,Wunderground v.1.15,2013-04-20 17:45:00,
2013-04-20 13:50:00,53.1,38.3,30.28,SW,225,2.0,-999.0,57,0.00,,,0.00,Wunderground v.1.15,2013-04-20 17:50:00,
2013-04-20 13:55:00,53.1,38.3,30.28,SW,225,2.0,-999.0,57,0.00,,,0.00,Wunderground v.1.15,2013-04-20 17:55:00,
2013-04-20 14:00:00,53.1,38.3,30.28,SW,225,2.0,-999.0,57,0.00,,,0.00,Wunderground v.1.15,2013-04-20 18:00:00,
2013-04-20 14:05:00,53.1,38.3,30.28,SW,225,2.0,-999.0,57,0.00,,,0.00,Wunderground v.1.15,2013-04-20 18:05:00,
2013-04-20 14:10:00,53.1,38.3,30.28,SW,225,2.0,-999.0,57,0.00,,,0.00,Wunderground v.1.15,2013-04-20 18:10:00,
2013-04-20 14:15:00,54.0,37.2,30.28,North,0,2.0,-999.0,53,0.00,,,0.00,Wunderground v.1.15,2013-04-20 18:15:00,
2013-04-20 14:20:00,54.0,37.2,30.28,North,0,2.0,-999.0,53,0.00,,,0.00,Wunderground v.1.15,2013-04-20 18:20:00,
2013-04-20 14:25:00,54.0,37.2,30.28,North,0,2.0,-999.0,53,0.00,,,0.00,Wunderground v.1.15,2013-04-20 18:25:00,
2013-04-20 14:30:00,54.0,37.2,30.28,North,0,2.0,-999.0,53,0.00,,,0.00,Wunderground v.1.15,2013-04-20 18:30:00,
2013-04-20 14:35:00,54.0,37.2,30.28,North,0,2.0,-999.0,53,0.00,,,0.00,Wunderground v.1.15,2013-04-20 18:35:00,
2013-04-20 14:40:00,54.0,37.2,30.28,North,0,2.0,-999.0,53,0.00,,,0.00,Wunderground v.1.15,2013-04-20 18:40:00,
2013-04-20 14:45:00,55.5,38.1,30.27,NNW,338,2.0,-999.0,52,0.00,,,0.00,Wunderground v.1.15,2013-04-20 18:45:00,
2013-04-20 14:50:00,55.5,38.1,30.27,NNW,338,2.0,-999.0,52,0.00,,,0.00,Wunderground v.1.15,2013-04-20 18:50:00,
2013-04-20 14:55:00,55.5,38.1,30.27,NNW,338,2.0,-999.0,52,0.00,,,0.00,Wunderground v.1.15,2013-04-20 18:55:00,
2013-04-20 15:00:00,55.5,38.1,30.27,NNW,338,2.0,-999.0,52,0.00,,,0.00,Wunderground v.1.15,2013-04-20 19:00:00,
2013-04-20 15:05:00,55.5,38.1,30.27,NNW,338,2.0,-999.0,52,0.00,,,0.00,Wunderground v.1.15,2013-04-20 19:05:00,
2013-04-20 15:10:00,55.5,38.1,30.27,NNW,338,2.0,-999.0,52,0.00,,,0.00,Wunderground v.1.15,2013-04-20 19:10:00,
2013-04-20 15:15:00,56.5,38.6,30.27,NNE,23,2.0,-999.0,51,0.00,,,0.00,Wunderground v.1.15,2013-04-20 19:15:00,
2013-04-20 15:20:00,56.5,38.6,30.27,NNE,23,2.0,-999.0,51,0.00,,,0.00,Wunderground v.1.15,2013-04-20 19:20:00,
2013-04-20 15:25:00,56.5,38.6,30.27,NNE,23,2.0,-999.0,51,0.00,,,0.00,Wunderground v.1.15,2013-04-20 19:25:00,
2013-04-20 15:30:00,56.5,38.6,30.27,NNE,23,2.0,-999.0,51,0.00,,,0.00,Wunderground v.1.15,2013-04-20 19:30:00,
2013-04-20 15:35:00,56.5,38.6,30.27,NNE,23,2.0,-999.0,51,0.00,,,0.00,Wunderground v.1.15,2013-04-20 19:35:00,
2013-04-20 15:40:00,56.5,38.6,30.27,NNE,23,2.0,-999.0,51,0.00,,,0.00,Wunderground v.1.15,2013-04-20 19:40:00,
2013-04-20 15:45:00,56.6,37.1,30.27,North,0,2.0,-999.0,48,0.00,,,0.00,Wunderground v.1.15,2013-04-20 19:45:00,
2013-04-20 15:50:00,56.6,37.1,30.27,North,0,2.0,-999.0,48,0.00,,,0.00,Wunderground v.1.15,2013-04-20 19:50:00,
2013-04-20 15:55:00,56.6,37.1,30.27,North,0,2.0,-999.0,48,0.00,,,0.00,Wunderground v.1.15,2013-04-20 19:55:00,
2013-04-20 16:00:00,56.6,37.1,30.27,North,0,2.0,-999.0,48,0.00,,,0.00,Wunderground v.1.15,2013-04-20 20:00:00,
2013-04-20 16:05:00,56.6,37.1,30.27,North,0,2.0,-999.0,48,0.00,,,0.00,Wunderground v.1.15,2013-04-20 20:05:00,
2013-04-20 16:10:00,56.6,37.1,30.27,North,0,2.0,-999.0,48,0.00,,,0.00,Wunderground v.1.15,2013-04-20 20:10:00,
2013-04-20 16:15:00,56.6,37.6,30.26,NNE,23,2.0,-999.0,49,0.00,,,0.00,Wunderground v.1.15,2013-04-20 20:15:00,
2013-04-20 16:20:00,56.6,37.6,30.26,NNE,23,2.0,-999.0,49,0.00,,,0.00,Wunderground v.1.15,2013-04-20 20:20:00,
2013-04-20 16:25:00,56.6,37.6,30.26,NNE,23,2.0,-999.0,49,0.00,,,0.00,Wunderground v.1.15,2013-04-20 20:25:00,
2013-04-20 16:30:00,56.6,37.6,30.26,NNE,23,2.0,-999.0,49,0.00,,,0.00,Wunderground v.1.15,2013-04-20 20:30:00,
2013-04-20 16:35:00,56.6,37.6,30.26,NNE,23,2.0,-999.0,49,0.00,,,0.00,Wunderground v.1.15,2013-04-20 20:35:00,
2013-04-20 16:40:00,56.6,37.6,30.26,NNE,23,2.0,-999.0,49,0.00,,,0.00,Wunderground v.1.15,2013-04-20 20:40:00,
2013-04-20 16:45:00,57.1,38.6,30.27,NE,45,2.0,-999.0,50,0.00,,,0.00,Wunderground v.1.15,2013-04-20 20:45:00,
2013-04-20 16:50:00,57.1,38.6,30.27,NE,45,2.0,-999.0,50,0.00,,,0.00,Wunderground v.1.15,2013-04-20 20:50:00,
2013-04-20 16:55:00,57.1,38.6,30.27,NE,45,2.0,-999.0,50,0.00,,,0.00,Wunderground v.1.15,2013-04-20 20:55:00,
2013-04-20 17:00:00,57.1,38.6,30.27,NE,45,2.0,-999.0,50,0.00,,,0.00,Wunderground v.1.15,2013-04-20 21:00:00,
2013-04-20 17:05:00,57.1,38.6,30.27,NE,45,2.0,-999.0,50,0.00,,,0.00,Wunderground v.1.15,2013-04-20 21:05:00,
2013-04-20 17:10:00,57.1,38.6,30.27,NE,45,2.0,-999.0,50,0.00,,,0.00,Wunderground v.1.15,2013-04-20 21:10:00,
2013-04-20 17:15:00,57.0,37.0,30.28,West,270,2.0,-999.0,47,0.00,,,0.00,Wunderground v.1.15,2013-04-20 21:15:00,
2013-04-20 17:20:00,57.0,37.0,30.28,West,270,2.0,-999.0,47,0.00,,,0.00,Wunderground v.1.15,2013-04-20 21:20:00,
2013-04-20 17:25:00,57.0,37.0,30.28,West,270,2.0,-999.0,47,0.00,,,0.00,Wunderground v.1.15,2013-04-20 21:25:00,
2013-04-20 17:30:00,57.0,37.0,30.28,West,270,2.0,-999.0,47,0.00,,,0.00,Wunderground v.1.15,2013-04-20 21:30:00,
2013-04-20 17:35:00,57.0,37.0,30.28,West,270,2.0,-999.0,47,0.00,,,0.00,Wunderground v.1.15,2013-04-20 21:35:00,
2013-04-20 17:40:00,57.0,37.0,30.28,West,270,2.0,-999.0,47,0.00,,,0.00,Wunderground v.1.15,2013-04-20 21:40:00,
2013-04-20 17:45:00,56.4,36.4,30.28,NE,45,2.0,-999.0,47,0.00,,,0.00,Wunderground v.1.15,2013-04-20 21:45:00,
2013-04-20 17:50:00,56.4,36.4,30.28,NE,45,2.0,-999.0,47,0.00,,,0.00,Wunderground v.1.15,2013-04-20 21:50:00,
2013-04-20 17:55:00,56.4,36.4,30.28,NE,45,2.0,-999.0,47,0.00,,,0.00,Wunderground v.1.15,2013-04-20 21:55:00,
2013-04-20 18:00:00,56.4,36.4,30.28,NE,45,2.0,-999.0,47,0.00,,,0.00,Wunderground v.1.15,2013-04-20 22:00:00,
2013-04-20 18:05:00,56.4,36.4,30.28,NE,45,2.0,-999.0,47,0.00,,,0.00,Wunderground v.1.15,2013-04-20 22:05:00,
2013-04-20 18:10:00,56.4,36.4,30.28,NE,45,2.0,-999.0,47,0.00,,,0.00,Wunderground v.1.15,2013-04-20 22:10:00,
2013-04-20 18:15:00,55.5,33.9,30.29,NNE,23,2.0,-999.0,44,0.00,,,0.00,Wunderground v.1.15,2013-04-20 22:15:00,
2013-04-20 18:20:00,55.5,33.9,30.29,NNE,23,2.0,-999.0,44,0.00,,,0.00,Wunderground v.1.15,2013-04-20 22:20:00,
2013-04-20 18:25:00,55.5,33.9,30.29,NNE,23,2.0,-999.0,44,0.00,,,0.00,Wunderground v.1.15,2013-04-20 22:25:00,
2013-04-20 18:30:00,55.5,33.9,30.29,NNE,23,2.0,-999.0,44,0.00,,,0.00,Wunderground v.1.15,2013-04-20 22:30:00,
2013-04-20 18:35:00,55.5,33.9,30.29,NNE,23,2.0,-999.0,44,0.00,,,0.00,Wunderground v.1.15,2013-04-20 22:35:00,
2013-04-20 18:40:00,55.5,33.9,30.29,NNE,23,2.0,-999.0,44,0.00,,,0.00,Wunderground v.1.15,2013-04-20 22:40:00,
2013-04-20 18:45:00,54.6,34.8,30.30,WNW,293,1.0,-999.0,47,0.00,,,0.00,Wunderground v.1.15,2013-04-20 22:45:00,
2013-04-20 18:50:00,54.6,34.8,30.30,WNW,293,1.0,-999.0,47,0.00,,,0.00,Wunderground v.1.15,2013-04-20 22:50:00,
2013-04-20 18:55:00,54.6,34.8,30.30,WNW,293,1.0,-999.0,47,0.00,,,0.00,Wunderground v.1.15,2013-04-20 22:55:00,
2013-04-20 19:00:00,54.6,34.8,30.30,WNW,293,1.0,-999.0,47,0.00,,,0.00,Wunderground v.1.15,2013-04-20 23:00:00,
2013-04-20 19:05:00,54.6,34.8,30.30,WNW,293,1.0,-999.0,47,0.00,,,0.00,Wunderground v.1.15,2013-04-20 23:05:00,
2013-04-20 19:10:00,54.6,34.8,30.30,WNW,293,1.0,-999.0,47,0.00,,,0.00,Wunderground v.1.15,2013-04-20 23:10:00,
2013-04-20 19:15:00,53.2,37.0,30.31,NNW,338,1.0,-999.0,54,0.00,,,0.00,Wunderground v.1.15,2013-04-20 23:15:00,
2013-04-20 19:20:00,53.2,37.0,30.31,NNW,338,1.0,-999.0,54,0.00,,,0.00,Wunderground v.1.15,2013-04-20 23:20:00,
2013-04-20 19:25:00,53.2,37.0,30.31,NNW,338,1.0,-999.0,54,0.00,,,0.00,Wunderground v.1.15,2013-04-20 23:25:00,
2013-04-20 19:30:00,53.2,37.0,30.31,NNW,338,1.0,-999.0,54,0.00,,,0.00,Wunderground v.1.15,2013-04-20 23:30:00,
2013-04-20 19:35:00,53.2,37.0,30.31,NNW,338,1.0,-999.0,54,0.00,,,0.00,Wunderground v.1.15,2013-04-20 23:35:00,
2013-04-20 19:40:00,53.2,37.0,30.31,NNW,338,1.0,-999.0,54,0.00,,,0.00,Wunderground v.1.15,2013-04-20 23:40:00,
2013-04-20 19:45:00,51.7,36.9,30.32,NE,45,1.0,-999.0,57,0.00,,,0.00,Wunderground v.1.15,2013-04-20 23:45:00,
2013-04-20 19:50:00,51.7,36.9,30.32,NE,45,1.0,-999.0,57,0.00,,,0.00,Wunderground v.1.15,2013-04-20 23:50:00,
2013-04-20 19:55:00,51.7,36.9,30.32,NE,45,1.0,-999.0,57,0.00,,,0.00,Wunderground v.1.15,2013-04-20 23:55:00,
2013-04-20 20:00:00,51.7,36.9,30.32,NE,45,1.0,-999.0,57,0.00,,,0.00,Wunderground v.1.15,2013-04-21 00:00:00,
2013-04-20 20:05:00,51.7,36.9,30.32,NE,45,1.0,-999.0,57,0.00,,,0.00,Wunderground v.1.15,2013-04-21 00:05:00,
2013-04-20 20:10:00,51.7,36.9,30.32,NE,45,1.0,-999.0,57,0.00,,,0.00,Wunderground v.1.15,2013-04-21 00:10:00,
2013-04-20 20:15:00,50.2,36.4,30.35,NNE,23,0.0,-999.0,59,0.00,,,0.00,Wunderground v.1.15,2013-04-21 00:15:00,
2013-04-20 20:20:00,50.2,36.4,30.35,NNE,23,0.0,-999.0,59,0.00,,,0.00,Wunderground v.1.15,2013-04-21 00:20:00,
2013-04-20 20:25:00,50.2,36.4,30.35,NNE,23,0.0,-999.0,59,0.00,,,0.00,Wunderground v.1.15,2013-04-21 00:25:00,
2013-04-20 20:30:00,50.2,36.4,30.35,NNE,23,0.0,-999.0,59,0.00,,,0.00,Wunderground v.1.15,2013-04-21 00:30:00,
2013-04-20 20:35:00,50.2,36.4,30.35,NNE,23,0.0,-999.0,59,0.00,,,0.00,Wunderground v.1.15,2013-04-21 00:35:00,
2013-04-20 20:40:00,50.2,36.4,30.35,NNE,23,0.0,-999.0,59,0.00,,,0.00,Wunderground v.1.15,2013-04-21 00:40:00,
2013-04-20 20:45:00,49.0,36.1,30.36,NNE,23,0.0,-999.0,61,0.00,,,0.00,Wunderground v.1.15,2013-04-21 00:45:00,
2013-04-20 20:50:00,49.0,36.1,30.36,NNE,23,0.0,-999.0,61,0.00,,,0.00,Wunderground v.1.15,2013-04-21 00:50:00,
2013-04-20 20:55:00,49.0,36.1,30.36,NNE,23,0.0,-999.0,61,0.00,,,0.00,Wunderground v.1.15,2013-04-21 00:55:00,
2013-04-20 21:00:00,49.0,36.1,30.36,NNE,23,0.0,-999.0,61,0.00,,,0.00,Wunderground v.1.15,2013-04-21 01:00:00,
2013-04-20 21:05:00,49.0,36.1,30.36,NNE,23,0.0,-999.0,61,0.00,,,0.00,Wunderground v.1.15,2013-04-21 01:05:00,
2013-04-20 21:10:00,49.0,36.1,30.36,NNE,23,0.0,-999.0,61,0.00,,,0.00,Wunderground v.1.15,2013-04-21 01:10:00,
2013-04-20 21:15:00,48.3,35.9,30.38,NNE,23,0.0,-999.0,62,0.00,,,0.00,Wunderground v.1.15,2013-04-21 01:15:00,
2013-04-20 21:20:00,48.3,35.9,30.38,NNE,23,0.0,-999.0,62,0.00,,,0.00,Wunderground v.1.15,2013-04-21 01:20:00,
2013-04-20 21:25:00,48.3,35.9,30.38,NNE,23,0.0,-999.0,62,0.00,,,0.00,Wunderground v.1.15,2013-04-21 01:25:00,
2013-04-20 21:30:00,48.3,35.9,30.38,NNE,23,0.0,-999.0,62,0.00,,,0.00,Wunderground v.1.15,2013-04-21 01:30:00,
2013-04-20 21:35:00,48.3,35.9,30.38,NNE,23,0.0,-999.0,62,0.00,,,0.00,Wunderground v.1.15,2013-04-21 01:35:00,
2013-04-20 21:40:00,48.3,35.9,30.38,NNE,23,0.0,-999.0,62,0.00,,,0.00,Wunderground v.1.15,2013-04-21 01:40:00,
2013-04-20 21:45:00,46.6,35.5,30.39,NE,45,0.0,-999.0,65,0.00,,,0.00,Wunderground v.1.15,2013-04-21 01:45:00,
2013-04-20 21:50:00,46.6,35.5,30.39,NE,45,0.0,-999.0,65,0.00,,,0.00,Wunderground v.1.15,2013-04-21 01:50:00,
2013-04-20 21:55:00,46.6,35.5,30.39,NE,45,0.0,-999.0,65,0.00,,,0.00,Wunderground v.1.15,2013-04-21 01:55:00,
2013-04-20 22:00:00,46.6,35.5,30.39,NE,45,0.0,-999.0,65,0.00,,,0.00,Wunderground v.1.15,2013-04-21 02:00:00,
2013-04-20 22:05:00,46.6,35.5,30.39,NE,45,0.0,-999.0,65,0.00,,,0.00,Wunderground v.1.15,2013-04-21 02:05:00,
2013-04-20 22:10:00,46.6,35.5,30.39,NE,45,0.0,-999.0,65,0.00,,,0.00,Wunderground v.1.15,2013-04-21 02:10:00,
2013-04-20 22:15:00,46.1,35.4,30.40,NNE,23,0.0,-999.0,66,0.00,,,0.00,Wunderground v.1.15,2013-04-21 02:15:00,
2013-04-20 22:20:00,46.1,35.4,30.40,NNE,23,0.0,-999.0,66,0.00,,,0.00,Wunderground v.1.15,2013-04-21 02:20:00,
2013-04-20 22:25:00,46.1,35.4,30.40,NNE,23,0.0,-999.0,66,0.00,,,0.00,Wunderground v.1.15,2013-04-21 02:25:00,
2013-04-20 22:30:00,46.1,35.4,30.40,NNE,23,0.0,-999.0,66,0.00,,,0.00,Wunderground v.1.15,2013-04-21 02:30:00,
2013-04-20 22:35:00,46.1,35.4,30.40,NNE,23,0.0,-999.0,66,0.00,,,0.00,Wunderground v.1.15,2013-04-21 02:35:00,
2013-04-20 22:40:00,46.1,35.4,30.40,NNE,23,0.0,-999.0,66,0.00,,,0.00,Wunderground v.1.15,2013-04-21 02:40:00,
2013-04-20 22:45:00,44.9,35.7,30.41,North,0,0.0,-999.0,70,0.00,,,0.00,Wunderground v.1.15,2013-04-21 02:45:00,
2013-04-20 22:50:00,44.9,35.7,30.41,North,0,0.0,-999.0,70,0.00,,,0.00,Wunderground v.1.15,2013-04-21 02:50:00,
2013-04-20 22:55:00,44.9,35.7,30.41,North,0,0.0,-999.0,70,0.00,,,0.00,Wunderground v.1.15,2013-04-21 02:55:00,
2013-04-20 23:00:00,44.9,35.7,30.41,North,0,0.0,-999.0,70,0.00,,,0.00,Wunderground v.1.15,2013-04-21 03:00:00,
2013-04-20 23:05:00,44.9,35.7,30.41,North,0,0.0,-999.0,70,0.00,,,0.00,Wunderground v.1.15,2013-04-21 03:05:00,
2013-04-20 23:10:00,44.9,35.7,30.41,North,0,0.0,-999.0,70,0.00,,,0.00,Wunderground v.1.15,2013-04-21 03:10:00,
2013-04-20 23:20:00,43.8,35.4,30.41,N/A,-737280,0.0,-999.0,72,0.00,,,0.00,Wunderground v.1.15,2013-04-21 03:20:00,
2013-04-20 23:25:00,43.8,35.4,30.41,N/A,-737280,0.0,-999.0,72,0.00,,,0.00,Wunderground v.1.15,2013-04-21 03:25:00,
2013-04-20 23:30:00,43.8,35.4,30.41,N/A,-737280,0.0,-999.0,72,0.00,,,0.00,Wunderground v.1.15,2013-04-21 03:30:00,
2013-04-20 23:35:00,43.8,35.4,30.41,N/A,-737280,0.0,-999.0,72,0.00,,,0.00,Wunderground v.1.15,2013-04-21 03:35:00,
2013-04-20 23:40:00,43.8,35.4,30.41,N/A,-737280,0.0,-999.0,72,0.00,,,0.00,Wunderground v.1.15,2013-04-21 03:40:00,
2013-04-20 23:45:00,43.2,35.5,30.41,North,0,0.0,-999.0,74,0.00,,,0.00,Wunderground v.1.15,2013-04-21 03:45:00,
2013-04-20 23:50:00,43.2,35.5,30.41,North,0,0.0,-999.0,74,0.00,,,0.00,Wunderground v.1.15,2013-04-21 03:50:00,
2013-04-20 23:55:00,43.2,35.5,30.41,North,0,0.0,-999.0,74,0.00,,,0.00,Wunderground v.1.15,2013-04-21 03:55:00,